TIME,DELAY(SENSOR),PRES,OXYGEN,RAWTEMP,T(OPTODE),TCPHASE,FLUOR,BETA(BETA700),BETA(BETA412),BETA(BETA440),CDOM,C(CSC),ED(ED411.90),ED(ED443.80),ED(ED489.40),ED(ED554.70),LU(LU412.20),LU(LU443.80),LU(LU489.40),LU(LU555.00),COMP,TILTX,TILTY,CHECK
1351633363,5806,877.0800170898438000,162.9888000488281200,429.2243041992187500,9.7100105285644530,39.2222900390625000,53,107,70,65,71,13277,2146961609,2147516726,2147287442,2147504237,2147087725,2146928676,2147702381,2147121782,1307,-1,9,21818
1351636959,5805,996.7899780273438000,195.8910064697265600,496.2297973632812500,7.6464152336120605,38.0900688171386700,52,101,69,64,71,13278,2146960475,2147517229,2147296265,2147519972,2147090185,2146923593,2147718080,2147122011,2850,-1,8,39083
1351640559,5806,1021.5999755859375000,212.1934967041015600,514.2265014648438000,7.0874428749084470,37.4180297851562500,52,103,69,64,72,13271,2146960566,2147518244,2147295396,2147522569,2147088329,2146924205,2147723739,2147124946,3257,-1,9,32435
1351644159,5806,1019.4799804687500000,212.2167968750000000,515.4400024414062000,7.0496730804443360,37.4383506774902340,53,104,70,64,71,13265,2146959414,2147520996,2147297024,2147524562,2147091547,2146925522,2147719780,2147121398,528,0,8,8110
1351647759,5805,1025.0100097656250000,214.9376983642578000,517.3350219726562000,6.9906702041625980,37.3149108886718750,52,105,69,65,72,13262,2146963200,2147516891,2147296941,2147522816,2147087698,2146921389,2147718582,2147123602,3461,-1,8,29787
1351651359,5809,1026.4000244140625000,216.2171936035156200,518.7205200195312000,6.9475140571594240,37.2652397155761700,53,104,70,65,72,13262,2146959643,2147520704,2147296484,2147523584,2147087753,2146920859,2147721499,2147123465,3593,-1,8,32077
1351654959,5805,1028.6500244140625000,217.8881072998047000,520.0015869140625000,6.9075951576232910,37.1937217712402340,53,104,70,66,73,13264,2146961828,2147514843,2147295972,2147523501,2147090358,2146921444,2147721554,2147119140,3176,-1,9,33534
1351658559,5807,1027.7800292968750000,218.0343017578125000,520.7219848632812000,6.8851442337036130,37.1984710693359400,52,104,69,64,71,13243,2146961801,2147518875,2147297682,2147521097,2147087488,2146922048,2147722633,2147122779,3413,-1,9,59394
1351662159,5805,1025.9599609375000000,217.8417968750000000,520.9044799804688000,6.8794569969177250,37.2117996215820300,52,102,69,66,72,13264,2146961709,2147516004,2147297737,2147523337,2147088018,2146923136,2147720557,2147120740,3298,-1,8,46534
1351665759,5805,1028.8000488281250000,218.3650054931640600,521.4655761718750000,6.8619661331176760,37.1929283142089840,53,101,69,66,71,13263,2146961033,2147519680,2147298441,2147523035,2147088585,2146924141,2147722194,2147122761,3149,-1,9,18242
1351669359,5804,1024.4699707031250000,218.4111022949218800,523.2189941406250000,6.8072981834411620,37.2211685180664060,53,105,69,65,72,13263,2146961435,2147514752,2147293842,2147525851,2147088978,2146921298,2147726052,2147123392,3057,0,9,1008
1351672959,5804,1029.9899902343750000,220.3040924072265600,522.3909912109375000,6.8331170082092285,37.1001014709472660,52,106,70,65,71,13261,2146963172,2147516178,2147297773,2147527158,2147089691,2146918299,2147721234,2147121142,2146,-1,9,12978
1351676559,5806,1038.8299560546875000,219.1781005859375000,520.9561157226562000,6.8778481483459470,37.1376304626464840,52,106,70,66,72,13261,2146961170,2147517046,2147298642,2147523200,2147087680,2146919808,2147719917,2147121444,303,-1,8,31435
1351680159,5809,1040.7199707031250000,216.5970001220703000,518.7708740234375000,6.9459409713745120,37.2448310852050800,53,102,69,64,72,13256,2146960987,2147514459,2147297408,2147519268,2147089782,2146919012,2147718070,2147123748,3558,-1,9,58828
1351683759,5807,1040.4000244140625000,216.2561035156250000,518.7932128906250000,6.9452490806579590,37.2646789550781250,52,102,70,66,72,13252,2146960073,2147518025,2147296914,2147525019,2147089645,2146919552,2147721417,2147120987,186,-1,8,70
1351687359,5806,1039.0899658203125000,213.2628936767578000,515.8220825195312000,7.0377769470214840,37.3843116760253900,53,103,69,65,72,13252,2146960877,2147516086,2147295881,2147523318,2147091017,2146924352,2147723163,2147123794,3384,0,8,7424
1351690959,5805,1034.2399902343750000,212.4792938232422000,516.2592163085938000,7.0241699218750000,37.4374389648437500,52,107,70,66,72,13247,2146962825,2147517083,2147296804,2147521078,2147090934,2146925824,2147719707,2147118811,3312,0,8,63937
1351694559,5806,1025.4200439453125000,213.6432037353515600,519.2072753906250000,6.9323468208312990,37.4226608276367200,52,105,69,64,72,13242,2146961179,2147517814,2147295222,2147524251,2147093056,2146924452,2147723172,2147117357,2956,-1,8,11214
1351698159,5808,1023.0499877929688000,215.8412017822265600,520.0513916015625000,6.9060449600219730,37.3113899230957000,52,102,70,65,73,13246,2146962084,2147514258,2147299172,2147525888,2147089883,2146919314,2147724242,2147122944,52,0,8,52329
1351701759,5805,1022.8499755859375000,215.7395935058593800,520.8112182617188000,6.8823661804199220,37.3300895690918000,52,101,69,66,71,13247,2146963602,2147515721,2147297746,2147522980,2147090422,2146919862,2147722715,2147119241,3550,-1,9,30012
1351705359,5807,1027.0300292968750000,217.5063934326172000,520.2711181640625000,6.8991980552673340,37.2196693420410160,52,103,70,111,71,13232,2146958528,2147518189,2147295488,2147523337,2147091721,2146920594,2147721993,2147121590,3549,-1,9,40179
1351708959,5806,1028.6099853515625000,217.7619934082031200,519.7692871093750000,6.9148330688476560,37.1962890625000000,52,104,68,66,71,13245,2146964818,2147521142,2147297581,2147523757,2147090322,2146921883,2147719744,2147122230,3352,0,9,20460
1351712559,5806,1031.1500244140625000,216.9846954345703000,519.3405761718750000,6.9281921386718750,37.2335281372070300,52,107,69,65,71,13239,2146962432,2147519250,2147295597,2147523830,2147091227,2146924672,2147718820,2147120420,3304,-1,9,45382
1351716159,5806,1034.6600341796875000,214.3399963378906200,517.3745117187500000,6.9894380569458010,37.3493309020996100,52,114,69,65,71,13239,2146959085,2147518134,2147298258,2147521801,2147089609,2146917988,2147725430,2147121197,681,-1,8,30669
1351719759,5806,1032.8900146484375000,214.3715057373047000,518.8673706054688000,6.9429359436035160,37.3738708496093750,52,103,70,65,71,13241,2146963410,2147518729,2147297508,2147521197,2147089206,2146912649,2147718683,2147120082,175,0,8,31576
1351723359,5805,1013.7800292968750000,208.4022064208984400,510.3345031738281000,7.2085161209106445,37.5719718933105500,52,103,69,66,72,13240,2146961664,2147519405,2147297170,2147515712,2147088777,2146920429,2147716918,2147122788,3279,-1,8,33765
1351726959,5803,1010.1799926757812000,208.4091033935547000,510.7860107421875000,7.1944751739501950,37.5797691345214840,53,106,69,64,72,13239,2146962395,2147520548,2147299264,2147522880,2147087424,2146919698,2147716598,2147122788,3407,0,8,40130
1351730559,5805,1007.9000244140625000,208.4575042724609400,510.2788085937500000,7.2102470397949220,37.5679588317871100,52,103,68,66,71,13238,2146961554,2147515803,2147296694,2147522157,2147093641,2146923547,2147719606,2147122761,3194,-1,9,52540
1351734159,5807,1010.5800170898438000,209.2510986328125000,510.7554931640625000,7.1954231262207030,37.5290985107421900,53,102,69,65,73,13239,2146960960,2147518683,2147295085,2147517522,2147086336,2146919177,2147718656,2147122066,420,0,8,32389
1351737759,5807,1010.4799804687500000,209.0198059082031200,510.7963867187500000,7.1941518783569340,37.5433387756347660,52,104,69,66,71,13234,2146963949,2147518171,2147295945,2147519387,2147086217,2146924160,2147718482,2147122404,112,0,8,19517
1351741359,5807,1010.6699829101562000,208.7286071777343800,509.8629150390625000,7.2231779098510740,37.5443305969238300,52,104,69,66,71,13233,2146963291,2147518930,2147293942,2147523776,2147089956,2146916864,2147720594,2147122633,753,-1,8,41972
1351744959,5807,1011.2600097656250000,208.8023071289062500,510.3129882812500000,7.2091832160949710,37.5482711791992200,52,105,70,65,71,13233,2146964123,2147518820,2147297654,2147520448,2147088630,2146919040,2147721709,2147119616,746,-1,9,17069
1351748559,5807,1010.5300292968750000,207.6707000732422000,510.2861938476562500,7.2100172042846680,37.6143608093261700,52,104,69,65,71,13228,2146962386,2147518637,2147296768,2147518244,2147090038,2146923611,2147720054,2147123766,3049,-1,8,54444
1351752159,5806,1012.1099853515625000,209.3302001953125000,510.8555908203125000,7.1923098564147950,37.5258903503418000,52,104,70,65,71,13230,2146964077,2147518592,2147297846,2147522669,2147090706,2146920027,2147717019,2147122185,828,-1,8,24856
1351755759,5803,1016.7100219726562000,207.4102935791015600,507.6911010742187500,7.2906861305236820,37.5840797424316400,52,104,69,65,71,13226,2146960265,2147519305,2147295387,2147518262,2147089700,2146921590,2147718564,2147124690,1647,-1,9,14759
1351759359,5805,1016.3499755859375000,207.4705047607422000,507.4926147460937500,7.2968530654907230,37.5773391723632800,52,105,69,66,72,13222,2146963346,2147521545,2147294985,2147522834,2147090368,2146920969,2147718363,2147123291,1711,-1,9,1151
1351762959,5808,1014.6199951171875000,208.0382995605468800,508.5216064453125000,7.2648739814758300,37.5621604919433600,52,104,69,65,71,13225,2146959634,2147519533,2147295707,2147521353,2147091154,2146917952,2147720347,2147123227,1853,-1,8,29409
1351766559,5806,1016.6599731445312000,208.0984039306640600,508.3140869140625000,7.2713232040405270,37.5545997619628900,53,102,70,65,71,13224,2146962541,2147517641,2147297106,2147523072,2147091282,2146924013,2147721371,2147126198,1893,-1,8,40894
1351770159,5806,1018.1599731445312000,208.6459045410156200,509.3825073242187500,7.2381138801574710,37.5413398742675800,52,104,70,65,72,13218,2146965513,2147519826,2147298496,2147518765,2147086793,2146923017,2147723254,2147122048,2034,-1,8,810
1351773759,5808,1021.4600219726562000,206.8954010009765600,506.8515014648437500,7.3167738914489750,37.6007804870605500,53,104,68,65,71,13219,2146958500,2147513984,2147297517,2147521097,2147090194,2146926070,2147723209,2147121353,668,-1,8,63708
1351777359,5807,1018.5800170898438000,205.1930999755859400,507.3913879394531000,7.2999978065490720,37.7121086120605500,52,102,69,64,71,13221,2146962194,2147524141,2147297033,2147518674,2147089408,2146924763,2147720228,2147123428,687,-1,8,12222
1351777555,5806,1190.0000000000000000,205.2590026855468800,507.3417968750000000,7.3015408515930180,37.7074584960937500,52,103,70,65,71,13222,2146966930,2147519369,2147296438,2147519853,2147091328,2146921947,2147715392,2147122779,591,-1,9,7409
